AirNav   Pilot Hours Calculator
 
 580 users online  

KCLW Clearwater Air Park
Clearwater, Florida, USA

GOING TO CLEARWATER?


FAA INFORMATION EFFECTIVE 20 MAY 2021

Location

FAA Identifier: CLW
Lat/Long: 27-58-37.9700N 082-45-32.6050W
27-58.632833N 082-45.543417W
27.9772139,-82.7590569
(estimated)
Elevation: 71 ft. / 21.6 m (surveyed)
Variation: 04W (2000)
From city: 3 miles NE of CLEARWATER, FL
Time zone: UTC -4 (UTC -5 during Standard Time)
Zip code: 33755

Airport Operations

Airport use: Open to the public
Activation date: 10/1942
Control tower: no
ARTCC: MIAMI CENTER
FSS: SAINT PETERSBURG FLIGHT SERVICE STATION
NOTAMs facility: CLW (NOTAM-D service available)
Attendance: 0700-2300
LNDGS & TKOFS PERMITTED 0700-2300.
Wind indicator: lighted
Segmented circle: yes
SEG CIRCLE PAINTED ON RWY.
Lights: ACTVT VASI RWY 16 & 34; MIRL RWY 16/34 - CTAF.

Airport Communications

CTAF/UNICOM: 123.0
WX AWOS-3P: 119.225 (727-449-2184)
TAMPA APPROACH: 125.3
TAMPA DEPARTURE: 125.3
WX ASOS at PIE (6 nm SE): 134.5 (727-531-3456)
WX ASOS at TPA (12 nm E): 126.45 (813-873-7228)
WX ASOS at SPG (15 nm SE): 118.875 (727-821-4334)
WX AWOS-3 at TPF (17 nm E): 118.925 (813-251-6824)

Nearby radio navigation aids

VOR radial/distance  VOR name  Freq  Var
PIEr321/5.7ST PETERSBURG VORTAC116.4005W
SRQr348/35.8SARASOTA VOR/DME117.0005W
LALr268/39.5LAKELAND VORTAC116.0001E

 
NDB name  Hdg/Dist  Freq  Var  ID
CAPOK255/3.136005WPI .--. ..
COSME247/14.036805WTP - .--.

Airport Services

Fuel available: 100LL JET-A
Parking: tiedowns
Airframe service: MAJOR
Powerplant service: MAJOR
Bottled oxygen: NONE
Bulk oxygen: NONE

Runway Information

Runway 16/34

Dimensions: 4108 x 75 ft. / 1252 x 23 m
Surface: asphalt, in fair condition
Weight bearing capacity: 
PCN 8 /F/B/X/T
Runway edge lights: medium intensity
RUNWAY 16  RUNWAY 34
Latitude: 27-58.938000N27-58.327667N
Longitude: 082-45.709667W082-45.377167W
Elevation: 65.9 ft.69.3 ft.
Traffic pattern: leftright
Displaced threshold: 357 ft.846 ft.
Markings: basic, in fair conditionbasic, in fair condition
Visual slope indicator: 4-box VASI on left (3.50 degrees glide path)4-box VASI on right (3.50 degrees glide path)
Touchdown point: yes, no lightsyes, no lights
Obstructions: 17 ft. pole, 250 ft. from runway, 110 ft. right of centerline, 3:1 slope to clear
RWY 16 APCH RATIO 20:1 TO DSPLCD THLD DUE TO 42 FT TREE; 125 LEFT OF RWY CNTRLN; 465 FT FROM RWY END.
40 ft. trees, 360 ft. from runway, 125 ft. left of centerline, 4:1 slope to clear
RWY 34 APCH RATIO 20:1 TO DSPLCD THLD DUE TO 71' TREE; 125'L OF RWY CNTRLN; 565' FROM RWY END.

Airport Ownership and Management from official FAA records

Ownership: Publicly-owned
Owner: CITY OF CLEARWATER
P.O. BOX 4748, ATTN: MARINE DEPARTMENT
CLEARWATER, FL 33758-4748
Phone 727-562-4959
CTC PERSON: MICHAEL MACDONALD 727-224-7005.
Manager: MICHAEL MACDONALD
25 CAUSEWAY BLVD., P.O. BOX4748
CLEARWATER, FL 33767
Phone (727) 462-6954
ARPT PHYS ADS: 1000 N HERCULES AVENUE, CLEARWATER, FL 33765 727-462-6954 FAX: 727-462-6957.

Airport Operational Statistics

Aircraft based on the field: 36
Single engine airplanes: 30
Multi engine airplanes: 5
Helicopters: 1
    
Aircraft operations: avg 139/day *
90% local general aviation
10% transient general aviation
<1% air taxi
<1% military
* for 12-month period ending 14 December 2017

Additional Remarks

FULL STOP LNDG ONLY. NO TOUCH & GO.
RY 16/34 TREES PENETRATE 7:1 TRANS SFC W SIDE.
NOISE ABATEMENT PROCEDURES IN EFFECT CTC FBO 727-443-3433.
FOR CD CTC TAMPA APCH AT 813-878-2528

Instrument Procedures

NOTE: All procedures below are presented as PDF files. If you need a reader for these files, you should download the free Adobe Reader.

NOT FOR NAVIGATION. Please procure official charts for flight.
FAA instrument procedures published for use from 20 May 2021 at 0901Z to 17 June 2021 at 0900z.

 
STARs - Standard Terminal Arrivals
BRDGE EIGHT   download (255KB)

Other nearby airports with instrument procedures:

KPIE - St Pete-Clearwater International Airport (6 nm SE)
KTPA - Tampa International Airport (12 nm E)
KSPG - Albert Whitted Airport (15 nm SE)
KMCF - MacDill Air Force Base (15 nm SE)
KTPF - Peter O Knight Airport (17 nm E)
 
Loc | Ops | Rwys | IFR | FBO | Links
Com | Nav | Svcs | Stats | Notes


 
Area around KCLW (Clearwater Air Park)
 
Road maps at: MapQuest Bing Google
 
Aerial photo
WARNING: Photo may not be current or correct
Aerial photo of KCLW (Clearwater Air Park)
Photo by David King
Taken in October 2013
looking northwest from 1,500 ft.

Do you have a better or more recent aerial photo of Clearwater Air Park that you would like to share? If so, please send us your photo.

 
Sectional chart

 
Airport distance calculator
Flying to Clearwater Air Park? Find the distance to fly.

From to KCLW

Sunrise and sunset
Times for 13-Jun-2021
 Local
(UTC-4)
 Zulu
(UTC)
Morning civil twilight06:0810:08
Sunrise06:3510:35
Sunset20:2700:27
Evening civil twilight20:5400:54

Current date and time
Zulu (UTC)  13-Jun-2021 11:46:35
Local (UTC-4)  13-Jun-2021 07:46:35
 
METAR
KCLW 131135Z AUTO 26005KT 10SM BKN022 BKN029 BKN050 27/22 A2989 RMK AO2
KPIE 
5nm SE 
131053Z 26010KT 10SM CLR 28/23 A2988 RMK AO2 SLP119 T02780228
KTPA 
12nm E 
131053Z 27008G14KT 10SM FEW045 FEW060 SCT090 28/23 A2989 RMK AO2 RAB16E25 SLP120 P0000 T02830228 $
KSPG 
14nm SE 
131053Z 27009KT 10SM SCT025 BKN030 BKN036 28/23 A2987 RMK AO2 RAB34E45 SLP114 P0000 T02780233 $
KMCF 
15nm SE 
131126Z AUTO 26005KT 10SM SCT021 BKN047 27/23 A2987 RMK AO2 SLP118 FZRANO $
KTPF 
17nm E 
131135Z AUTO 27005KT 10SM SCT025 BKN100 OVC120 28/23 A2990 RMK AO2
TAF
KPIE 
5nm SE 
130540Z 1306/1406 24008KT P6SM FEW030 FM130800 24008KT P6SM VCSH SCT025 FM131400 25010KT P6SM VCTS SCT030CB BKN100 FM131700 26012KT P6SM VCTS BKN035CB FM132200 24008KT P6SM VCTS SCT035CB BKN100 FM140200 23006KT P6SM VCSH SCT035 BKN100
KTPA 
12nm E 
130907Z 1309/1412 24008KT P6SM VCSH SCT025 FM131400 24010KT P6SM VCTS SCT035CB BKN100 FM131700 26012KT P6SM VCTS BKN035CB FM132200 23008KT P6SM VCTS SCT035CB BKN100 FM140200 23006KT P6SM VCSH SCT035 BKN100
KMCF 
15nm SE 
130900Z 1309/1415 26009KT 9999 SKC QNH2984INS TEMPO 1313/1316 27010G15KT 9000 VCSH SCT025 TEMPO 1316/1323 27015KT 9000 -SHRA VCTS FEW025CB SCT040 BECMG 1400/1401 25010G15KT 9000 VCSH SCT025 QNH2982INS TEMPO 1410/1415 VRB10G15KT 8000 -TSRA SCT025CB BKN040 BKN055 TX31/1319Z TN23/1310Z
NOTAMs
Click for the latest NOTAMs
NOTAMs are issued by the DoD/FAA and will open in a separate window not controlled by AirNav.

 

 
 

FBO, Fuel Providers, and Aircraft Ground Support

  
 Business Name 
 
 Contact 
 
 Services / Description 
 
Fuel Prices
 
Comments
  
 Clearwater Airpark, Inc.
UNICOM 123.00
727-443-3433
[web site]
[email]
Clearwater Airpark has been named "2014 General Aviation Airport of the Year" by the Florida Dept. of Transportation.

Located in Clearwater, facilitating your needs with no landing fees, a new longer runway, now 4108' x 75', crew car and full service Jet A and 100LL at superior pricing.
 
AirBoss™ fuel program  
 
More info about Clearwater Airpark, Inc.
Phillips 66
100LL Jet A
FS $5.65 $4.15 
GUARANTEED
AirBossMEMBERS
ONLY
Discounts
LoginJoin
 
   4 read write
FS=Full service
Update Fuel Prices
 

Would you like to see your business listed on this page?

 If your business provides an interesting product or service to pilots, flight crews, aircraft, or users of the Clearwater Air Park, you should consider listing it here.  To start the listing process, click on the button below
 
Add a business
 

Other Pages about Clearwater Air Park

www.clearwaterairpark.net
 
Update a link
 
Copyright © AirNav, LLC. All rights reserved. Privacy Policy  Contact